SCP
0 1 1 1 1 1 1 1 1 1 2 2 2 2 3 2 2 2 1 2 2 1 1 1 1 1 2 2 2 1 1 1 1 1 1 1 1 1 1 1 1 1 1
1 1 1 1 1 1 1 1 1 1 1 2 2 2 3 3 2 2 2 2 2 1 1 1 1 1 1 1 1 2 2 2 1 1 1 1 1 1 1 1 1 1 1
1 1 0 0 1 1 1 1 1 1 1 1 2 2 3 3 2 2 2 2 2 1 1 1 1 1 1 1 1 1 2 2 2 2 1 1 1 1 1 1 1 1 1
1 1 1 1 1 1 1 1 1 1 1 1 1 1 2 2 2 2 3 3 2 1 1 1 1 1 1 1 1 1 1 2 2 2 2 2 2 1 1 1 1 1 1
1 1 1 1 1 1 1 1 1 1 1 1 1 1 1 2 2 3 3 3 2 1 1 1 1 1 1 1 1 1 1 1 1 2 2 2 2 2 2 2 2 1 1
1 1 1 1 1 1 1 1 1 1 1 1 1 1 1 1 1 2 3 3 2 2 1 1 1 1 1 1 1 1 1 1 1 1 2 2 1 1 2 2 2 2 2
1 1 1 1 1 1 1 1 1 1 1 1 1 1 1 1 1 1 2 3 2 2 2 1 2 2 2 2 1 1 1 1 1 1 1 1 1 1 1 1 1 1 1
1 1 2 2 2 2 1 1 1 1 1 1 1 1 1 1 1 1 1 2 3 3 3 2 2 3 2 2 1 1 1 1 1 1 1 1 1 1 1 1 1 1 1
1 1 2 2 2 1 1 1 1 1 1 1 1 1 1 1 1 1 1 2 2 3 3 2 2 3 3 2 1 1 1 1 1 2 2 1 1 1 1 1 1 1 1
1 1 2 2 1 1 1 1 1 1 1 1 1 1 1 1 1 1 1 1 2 2 2 2 2 2 2 2 1 1 1 1 1 2 2 2 1 1 1 1 1 1 1
1 1 1 1 1 2 2 2 1 1 1 1 1 1 1 1 1 1 1 1 1 1 2 2 1 2 2 2 1 1 1 1 1 1 2 2 1 1 1 1 1 1 1
1 1 1 1 2 2 2 2 3 2 2 2 2 2 2 1 1 1 1 2 1 1 1 1 1 1 2 2 2 1 1 1 1 1 1 2 1 1 1 1 1 1 1
1 1 2 2 2 3 3 4 4 4 4 4 4 3 3 2 2 2 2 2 2 1 1 1 1 1 2 2 2 1 1 1 1 1 1 1 1 1 1 1 1 1 1
1 2 2 2 3 4 5 6 6 7 7 7 7 6 5 4 2 2 2 2 2 1 1 1 1 1 2 2 2 2 1 1 1 1 1 1 1 1 1 1 1 1 1
2 2 2 2 3 4 5 7 8 8 9 10 9 9 8 6 4 3 2 2 2 1 1 1 1 2 2 2 2 2 2 1 1 1 1 0 0 0 0 0 1 1 1
2 2 2 2 3 4 5 6 7 8 9 10 10 10 9 7 5 4 3 2 1 1 1 1 2 2 2 3 3 3 2 2 2 1 1 0 0 0 0 0 0 0 0
2 2 2 2 3 3 4 5 5 6 7 8 8 8 7 6 5 4 4 2 2 2 2 2 2 3 3 4 4 4 3 3 2 1 1 0 0 0 0 0 0 0 0
3 2 2 2 3 3 3 4 4 5 5 5 6 6 6 5 5 4 4 3 2 3 3 3 3 3 4 4 5 4 4 3 2 1 1 0 0 0 0 0 0 0 0
3 2 2 2 3 3 3 4 4 4 5 5 5 5 5 5 5 5 4 4 3 3 4 4 3 4 4 5 5 5 4 4 3 2 1 1 0 0 0 0 0 0 0
3 3 2 2 2 3 3 3 4 4 4 5 5 4 4 5 5 5 4 4 4 4 4 4 3 4 5 6 7 6 5 5 4 3 2 1 1 1 0 0 0 0 0
4 4 3 3 3 3 3 3 3 3 4 4 4 4 4 4 4 4 4 4 4 5 4 4 4 4 6 8 9 8 6 6 5 4 3 2 2 2 2 1 1 0 0
4 4 4 4 3 3 2 2 2 2 3 4 4 5 5 4 4 4 3 3 3 4 4 4 4 5 7 8 8 8 7 7 6 5 4 3 3 3 3 2 2 1 1
4 4 4 5 5 4 3 2 2 2 3 4 5 6 6 5 5 4 4 3 3 3 3 4 5 6 7 8 8 7 7 7 6 5 4 4 4 3 3 3 2 1 1
4 4 4 4 5 5 3 2 2 2 3 4 5 6 5 5 5 5 4 4 4 4 3 4 4 5 6 7 8 7 7 6 6 5 5 4 4 3 2 2 2 1 1
5 5 4 3 3 3 3 2 2 2 3 4 5 5 4 4 4 4 4 4 5 5 4 4 4 4 4 5 6 7 7 6 5 5 6 5 4 3 2 2 2 1 1
6 6 5 3 3 2 2 1 1 3 4 4 5 4 3 3 3 3 4 4 5 5 4 4 4 4 4 4 4 5 6 6 5 5 6 5 3 3 3 2 2 2 1
Wind_Speed
3 3 3 2 2 2 2 1 2 2 2 1 1 1 0 0 0 1 3 6 4 3 3 3 4 5 5 5 5 6 6 6 6 6 7 8 8 9 9 9 10 10 10
3 2 2 2 2 2 2 1 2 1 1 1 1 1 1 0 1 0 0 4 6 4 3 3 4 4 5 5 5 5 6 6 6 6 7 7 8 8 9 10 10 10 11
3 1 2 2 2 2 2 1 1 1 1 1 1 1 0 1 0 0 1 1 3 6 5 3 3 4 4 5 4 5 5 5 6 6 7 7 7 7 9 9 9 10 10
2 1 2 2 2 1 1 1 1 1 2 1 1 0 0 1 1 1 1 1 1 1 5 5 3 3 4 4 4 4 4 4 5 5 6 6 7 7 8 8 9 9 9
1 0 1 2 0 0 1 1 2 1 1 1 0 0 0 0 0 1 0 1 1 1 2 5 6 5 4 4 3 3 3 4 4 5 5 6 6 6 7 7 8 9 9
0 1 1 1 1 0 1 1 1 1 1 1 1 1 0 0 1 0 1 1 1 2 2 1 3 5 7 5 4 4 4 4 4 4 5 6 6 6 6 7 7 8 9
0 1 1 1 1 0 0 0 1 0 0 1 1 1 1 2 1 1 1 2 1 1 1 1 2 1 3 7 6 4 4 4 4 4 5 5 5 5 6 6 7 8 8
2 2 1 2 1 1 1 1 1 2 1 1 2 2 1 3 2 1 1 1 2 1 1 2 1 2 3 2 3 5 3 3 4 4 4 4 4 4 6 6 6 7 8
2 2 2 2 1 2 1 2 2 2 2 1 2 3 3 2 1 2 1 1 1 1 2 1 2 2 3 2 1 3 3 2 3 3 3 3 4 4 6 7 7 7 7
2 2 2 2 2 2 1 3 1 2 3 2 1 1 3 3 3 1 1 0 1 1 2 2 2 2 2 2 1 1 2 2 3 3 2 2 3 4 5 6 7 7 7
2 2 2 2 2 2 2 3 2 3 3 3 2 2 2 2 4 4 3 2 1 1 1 2 2 2 2 2 1 1 2 2 2 3 3 2 3 4 5 6 6 7 7
2 2 3 2 3 2 2 3 3 4 4 3 3 3 3 2 3 3 3 3 2 1 1 2 2 2 2 2 0 2 2 1 2 2 2 2 3 4 5 5 6 6 6
2 2 2 2 2 2 3 3 3 3 3 3 4 3 3 3 3 3 4 3 3 2 1 2 1 2 1 1 1 2 3 3 2 2 2 2 2 2 3 5 5 5 5
2 1 2 2 2 3 3 2 3 3 2 3 3 3 3 3 3 3 3 3 4 3 2 1 1 1 1 1 2 3 2 4 4 3 3 2 2 2 3 3 3 3 4
2 2 2 2 2 2 2 3 2 2 2 3 3 3 3 2 3 2 3 4 4 4 2 0 1 1 2 1 1 1 1 4 5 4 3 2 2 2 3 3 3 3 3
2 3 3 3 3 3 3 3 3 2 2 2 2 2 3 3 2 2 3 3 3 4 3 2 1 1 2 2 2 0 1 5 5 4 3 3 3 3 3 3 3 4 4
4 3 3 3 3 3 3 3 3 2 3 3 3 2 3 3 3 2 3 3 3 3 3 2 1 1 1 2 1 1 1 2 3 5 4 4 3 3 3 4 4 4 4
4 4 3 3 3 3 3 3 3 2 3 3 3 3 3 2 3 3 2 3 3 3 4 3 2 1 1 1 1 2 1 1 1 5 5 5 5 4 4 4 4 4 4
4 4 3 3 3 3 3 3 3 3 3 3 3 3 3 2 3 2 3 3 3 2 2 3 2 1 2 2 2 2 2 2 2 3 5 6 6 5 5 4 4 4 4
5 4 3 3 3 3 3 2 3 3 3 2 2 2 3 2 3 3 3 3 3 3 2 3 2 2 2 2 2 2 2 1 2 2 2 3 5 7 7 6 6 5 5
5 4 3 3 3 3 2 2 3 3 3 3 3 3 2 1 2 3 3 2 3 3 3 3 3 2 2 2 2 2 2 2 2 2 2 2 3 4 5 7 7 7 6
4 4 4 3 3 2 1 1 3 3 3 3 3 3 3 2 2 2 2 2 3 4 4 3 3 3 3 3 3 3 3 3 3 2 3 3 3 3 3 3 5 7 7
4 4 4 3 3 2 1 1 3 4 3 3 3 3 3 1 2 2 3 4 3 3 4 5 5 5 4 3 4 4 3 4 4 3 3 4 3 3 3 2 7 7 7
4 3 3 3 3 2 3 2 3 4 4 3 3 3 3 2 2 2 3 3 3 3 4 4 4 5 4 3 4 4 3 3 4 3 3 4 3 3 3 2 7 7 7
3 3 3 3 3 2 3 2 4 4 3 4 3 3 3 3 0 2 4 4 4 3 3 2 3 4 4 4 4 3 3 3 3 3 2 4 4 3 3 2 3 7 7
4 3 3 3 3 3 3 3 4 4 3 3 3 3 2 2 1 3 4 4 5 4 4 3 3 4 4 4 5 5 4 4 4 3 2 3 4 3 3 2 2 3 4
Wind_Direction
67 68 60 54 62 78 106 85 79 88 99 121 146 122 166 124 89 175 131 140 161 186 208 225 236 235 228 220 212 209 213 218 223 223 224 220 217 217 217 217 215 213 209
64 63 78 55 54 56 55 56 83 105 103 92 111 89 303 353 89 246 180 149 164 181 208 232 244 237 232 220 207 206 210 216 227 227 227 222 222 220 219 219 217 217 215
68 53 69 67 54 60 82 92 72 89 125 131 101 84 169 348 49 193 250 244 175 174 188 215 236 229 224 223 219 215 213 214 221 225 224 223 224 220 219 218 219 214 211
60 24 55 54 48 64 83 92 62 47 55 32 49 17 119 158 205 219 219 225 264 207 177 181 209 213 223 229 233 228 220 216 220 221 220 219 223 221 218 218 216 212 206
56 350 49 49 336 40 60 24 68 20 39 15 358 118 16 80 204 220 232 224 215 254 253 166 192 200 213 227 232 229 224 219 222 225 222 219 222 221 215 212 208 204 201
66 305 152 119 262 164 59 39 40 30 341 327 327 27 326 237 264 190 250 228 226 246 262 271 213 190 193 204 215 230 234 227 226 226 223 219 221 215 211 209 203 202 199
202 255 297 147 253 180 292 275 297 204 254 303 266 225 195 199 228 250 265 294 286 281 274 262 267 274 191 184 193 214 232 231 229 228 225 220 222 212 205 202 199 196 196
247 222 230 251 221 207 214 244 261 294 296 263 300 290 252 183 179 197 248 261 297 285 269 245 270 259 271 245 144 181 212 230 231 233 229 219 216 213 208 203 195 192 196
247 272 245 265 265 252 214 250 254 273 294 283 306 308 310 348 329 165 206 261 286 291 280 282 251 261 263 261 234 172 183 227 235 232 225 215 214 210 203 200 198 195 195
257 245 245 249 267 282 264 252 236 269 271 284 240 261 300 317 296 292 217 218 259 272 306 299 292 262 260 263 236 107 172 221 231 228 222 222 213 202 194 194 193 192 194
237 234 231 233 244 259 275 291 274 268 267 277 285 272 261 244 258 278 293 298 281 289 301 289 287 290 279 266 256 96 135 224 227 219 212 211 207 200 194 192 191 190 189
214 212 229 233 242 259 254 265 270 259 269 282 285 283 276 278 278 281 284 284 297 306 318 315 292 292 289 273 319 93 142 183 192 197 203 195 192 196 197 191 186 185 184
216 202 240 238 249 250 258 268 259 277 267 267 268 276 286 285 287 283 282 291 295 293 279 265 305 310 311 302 90 140 145 151 158 158 171 176 176 180 190 195 192 191 192
256 224 236 238 246 249 250 249 263 258 261 265 269 277 276 275 282 279 278 284 284 277 266 313 334 335 323 295 68 198 154 153 167 158 154 171 164 155 155 163 174 181 191
240 216 230 232 238 242 254 258 269 286 280 268 264 250 263 275 265 276 276 274 283 291 303 292 286 352 317 0 80 203 152 133 149 154 157 156 152 153 156 168 180 183 185
242 235 229 227 230 234 235 245 250 244 259 269 281 298 283 272 274 261 269 277 280 286 298 328 332 347 347 339 105 228 158 143 151 162 167 166 170 175 172 176 184 189 189
220 222 224 225 226 231 237 243 259 250 253 265 272 272 278 293 283 276 268 269 272 274 275 296 338 20 319 306 356 298 219 204 165 165 176 185 191 192 190 197 198 203 204
213 210 215 221 227 227 229 240 254 256 255 262 273 276 278 276 275 277 276 268 268 267 263 273 280 268 270 269 281 280 278 252 205 148 169 186 193 195 199 205 207 208 207
210 210 211 224 236 239 232 238 251 258 258 260 264 268 273 277 274 279 278 277 275 266 262 262 268 279 271 267 255 254 271 293 275 163 171 185 194 194 193 199 203 205 207
205 203 208 221 231 239 239 240 238 251 258 258 263 268 268 268 272 272 264 271 274 271 257 255 253 244 251 253 258 259 261 253 279 267 205 196 188 194 196 199 203 204 205
204 201 206 214 225 228 238 243 236 236 242 246 248 253 260 302 327 299 299 291 280 268 258 256 258 256 259 269 263 265 270 268 263 266 259 232 207 213 202 201 207 205 201
202 202 208 214 223 237 60 307 270 249 246 243 246 251 236 216 223 206 244 287 295 279 278 271 266 266 260 260 268 267 267 265 262 250 260 255 245 242 229 221 180 183 195
195 202 211 214 214 194 155 200 264 252 245 252 256 261 266 237 233 233 213 221 234 248 266 274 273 272 267 262 266 267 271 276 279 285 267 269 257 257 246 180 159 174 186
198 204 209 213 216 195 155 182 239 238 248 252 256 262 267 263 271 280 260 256 257 248 255 259 273 278 280 273 256 256 259 264 265 266 255 270 273 271 267 191 155 175 187
199 207 210 213 215 195 157 191 240 235 236 247 253 254 259 255 303 291 263 263 263 257 228 242 273 280 291 279 265 255 245 248 266 272 257 272 280 282 270 242 175 179 193
204 212 209 216 214 211 177 191 242 246 242 245 242 236 232 253 253 258 257 262 267 273 277 251 234 238 240 232 224 238 249 252 262 269 268 267 273 279 266 246 235 201 207